This is the latest recevied weather packets stored in our database for station/object N7CEE-2. If no packets are shown the sender has not sent any weather packets the latest 10 day(s).
| Time | Temp. | Humidity | Pressure | Rain* | Wind** | Luminosity | Snow |
|---|---|---|---|---|---|---|---|
| 1777638758 | 17.78° C | 48% | 1012.7 hPa | 0 mm | - | 1 W/m² | - |
| 1777638454 | 17.78° C | 48% | 1012.8 hPa | 0 mm | - | 1 W/m² | - |
| 1777638152 | 17.78° C | 47% | 1012.7 hPa | 0 mm | - | 0 W/m² | - |
| 1777637846 | 17.78° C | 47% | 1012.6 hPa | 0 mm | - | 0 W/m² | - |
| 1777637543 | 17.78° C | 48% | 1012.6 hPa | 0 mm | - | 0 W/m² | - |
| 1777637241 | 17.78° C | 48% | 1012.6 hPa | 0 mm | - | 0 W/m² | - |
| 1777636938 | 17.78° C | 48% | 1012.4 hPa | 0 mm | - | 0 W/m² | - |
| 1777636633 | 17.78° C | 48% | 1012.4 hPa | 0 mm | - | 0 W/m² | - |
| 1777636330 | 17.78° C | 47% | 1012.6 hPa | 0 mm | - | 0 W/m² | - |
| 1777636024 | 18.33° C | 47% | 1012.4 hPa | 0 mm | - | 0 W/m² | - |
| 1777635720 | 18.33° C | 47% | 1012.4 hPa | 0 mm | - | 0 W/m² | - |
| 1777635417 | 17.78° C | 47% | 1012.1 hPa | 0 mm | - | 0 W/m² | - |
| 1777635115 | 17.78° C | 47% | 1012.2 hPa | 0 mm | - | 0 W/m² | - |
| 1777634810 | 18.33° C | 46% | 1012.3 hPa | 0 mm | - | 0 W/m² | - |
| 1777634507 | 18.33° C | 45% | 1012.2 hPa | 0 mm | - | 0 W/m² | - |
| 1777634204 | 18.89° C | 45% | 1012 hPa | 0 mm | - | 0 W/m² | - |
| 1777633900 | 18.89° C | 43% | 1012.1 hPa | 0 mm | - | 0 W/m² | - |
| 1777633598 | 19.44° C | 43% | 1012.2 hPa | 0 mm | - | 0 W/m² | - |
| 1777633296 | 19.44° C | 42% | 1012.1 hPa | 0 mm | - | 0 W/m² | - |
| 1777632994 | 20° C | 42% | 1012.1 hPa | 0 mm | - | 0 W/m² | - |
| 1777632689 | 20° C | 42% | 1011.9 hPa | 0 mm | - | 0 W/m² | - |
| 1777632386 | 20° C | 41% | 1012 hPa | 0 mm | - | 0 W/m² | - |
| 1777632083 | 20° C | 41% | 1011.7 hPa | 0 mm | - | 0 W/m² | - |
| 1777631781 | 19.44° C | 42% | 1011.6 hPa | 0 mm | - | 0 W/m² | - |
| 1777631479 | 20° C | 41% | 1011.6 hPa | 0 mm | - | 0 W/m² | - |
* Rain latest hour (hover to see other rain measurements)
** Current wind speed in m/s (hover to see current wind gust speed)